| time (UTC) | temp F | wind direction | speed MPH | gust MPH | rain 1hr in | rain 24hr in | rain mn in | humidity % | barometer mb |
| 20260510222416 | 83 | 113 | 11.0 | 13.0 | 0.00 | 0.00 | 0.00 | 22 | 1015.7 |
| 20260510221416 | 85 | 113 | 13.0 | 19.0 | 0.00 | 0.00 | 0.00 | 17 | 1015.9 |
| 20260510220416 | 87 | 68 | 3.0 | 5.0 | 0.00 | 0.00 | 0.00 | 12 | 1015.7 |
| 20260510215436 | 88 | 0.0 | 2.0 | 0.00 | 0.00 | 0.00 | 12 | 1015.9 | |
| 20260510214416 | 89 | 0.0 | 0.0 | 0.00 | 0.00 | 0.00 | 12 | 1016.0 | |
| 20260510213416 | 88 | 158 | 4.0 | 6.0 | 0.00 | 0.00 | 0.00 | 12 | 1016.1 |
| 20260510212416 | 89 | 135 | 3.0 | 4.0 | 0.00 | 0.00 | 0.00 | 12 | 1016.1 |
| 20260510211436 | 90 | 0.0 | 0.0 | 0.00 | 0.00 | 0.00 | 12 | 1016.0 | |
| 20260510210416 | 88 | 135 | 8.0 | 12.0 | 0.00 | 0.00 | 0.00 | 13 | 1016.2 |
| 20260510205416 | 88 | 135 | 4.0 | 6.0 | 0.00 | 0.00 | 0.00 | 14 | 1016.3 |
| 20260510204416 | 89 | 135 | 5.0 | 8.0 | 0.00 | 0.00 | 0.00 | 13 | 1016.5 |
| 20260510203416 | 90 | 0.0 | 0.0 | 0.00 | 0.00 | 0.00 | 12 | 1016.9 | |
| 20260510202416 | 91 | 225 | 5.0 | 10.0 | 0.00 | 0.00 | 0.00 | 12 | 1016.9 |
| 20260510201416 | 90 | 158 | 1.0 | 5.0 | 0.00 | 0.00 | 0.00 | 12 | 1016.9 |
| 20260510200416 | 91 | 225 | 5.0 | 7.0 | 0.00 | 0.00 | 0.00 | 11 | 1017.1 |
| 20260510195416 | 90 | 0.0 | 2.0 | 0.00 | 0.00 | 0.00 | 12 | 1016.7 | |
| 20260510194416 | 90 | 113 | 3.0 | 6.0 | 0.00 | 0.00 | 0.00 | 12 | 1016.9 |
| 20260510193416 | 89 | 135 | 1.0 | 2.0 | 0.00 | 0.00 | 0.00 | 12 | 1016.9 |
| 20260510192416 | 88 | 135 | 5.0 | 8.0 | 0.00 | 0.00 | 0.00 | 13 | 1017.0 |
| 20260510191416 | 88 | 158 | 7.0 | 10.0 | 0.00 | 0.00 | 0.00 | 13 | 1017.1 |
| 20260510190416 | 88 | 0.0 | 2.0 | 0.00 | 0.00 | 0.00 | 14 | 1017.1 | |
| 20260510185416 | 89 | 90 | 4.0 | 6.0 | 0.00 | 0.00 | 0.00 | 13 | 1017.5 |
| 20260510184416 | 88 | 0.0 | 2.0 | 0.00 | 0.00 | 0.00 | 13 | 1017.4 | |
| 20260510183416 | 87 | 68 | 4.0 | 6.0 | 0.00 | 0.00 | 0.00 | 14 | 1017.3 |
| 20260510182416 | 86 | 0.0 | 1.0 | 0.00 | 0.00 | 0.00 | 15 | 1017.5 | |
| 20260510181416 | 86 | 45 | 5.0 | 9.0 | 0.00 | 0.00 | 0.00 | 15 | 1017.6 |
| 20260510180416 | 84 | 90 | 4.0 | 8.0 | 0.00 | 0.00 | 0.00 | 15 | 1017.4 |
| 20260510175416 | 84 | 90 | 6.0 | 11.0 | 0.00 | 0.00 | 0.00 | 15 | 1017.7 |
| 20260510174416 | 84 | 68 | 3.0 | 5.0 | 0.00 | 0.00 | 0.00 | 16 | 1017.7 |
| 20260510173416 | 84 | 113 | 5.0 | 8.0 | 0.00 | 0.00 | 0.00 | 15 | 1017.8 |
| 20260510172416 | 85 | 68 | 7.0 | 18.0 | 0.00 | 0.00 | 0.00 | 15 | 1018.0 |
| 20260510171416 | 85 | 68 | 5.0 | 10.0 | 0.00 | 0.00 | 0.00 | 15 | 1018.1 |
| 20260510170416 | 85 | 113 | 4.0 | 7.0 | 0.00 | 0.00 | 0.00 | 15 | 1017.9 |
| 20260510165416 | 84 | 68 | 5.0 | 11.0 | 0.00 | 0.00 | 0.00 | 15 | 1017.6 |
| 20260510164416 | 84 | 90 | 6.0 | 11.0 | 0.00 | 0.00 | 0.00 | 16 | 1017.6 |
| 20260510163416 | 84 | 90 | 2.0 | 4.0 | 0.00 | 0.00 | 0.00 | 16 | 1017.5 |
| 20260510162436 | 84 | 68 | 6.0 | 11.0 | 0.00 | 0.00 | 0.00 | 15 | 1017.7 |
| 20260510161416 | 84 | 113 | 1.0 | 4.0 | 0.00 | 0.00 | 0.00 | 16 | 1017.7 |
| 20260510160416 | 83 | 0.0 | 1.0 | 0.00 | 0.00 | 0.00 | 16 | 1017.5 | |
| 20260510155416 | 83 | 113 | 4.0 | 6.0 | 0.00 | 0.00 | 0.00 | 16 | 1017.8 |
| 20260510154416 | 83 | 315 | 1.0 | 3.0 | 0.00 | 0.00 | 0.00 | 16 | 1017.7 |
| 20260510153416 | 81 | 225 | 5.0 | 9.0 | 0.00 | 0.00 | 0.00 | 17 | 1017.3 |
| 20260510152416 | 81 | 0.0 | 0.0 | 0.00 | 0.00 | 0.00 | 16 | 1017.0 | |
| 20260510151416 | 79 | 203 | 2.0 | 4.0 | 0.00 | 0.00 | 0.00 | 17 | 1017.0 |
| 20260510150416 | 78 | 338 | 5.0 | 9.0 | 0.00 | 0.00 | 0.00 | 18 | 1016.7 |
| 20260510145416 | 77 | 293 | 3.0 | 7.0 | 0.00 | 0.00 | 0.00 | 17 | 1016.8 |
| 20260510144416 | 76 | 225 | 3.0 | 4.0 | 0.00 | 0.00 | 0.00 | 18 | 1016.8 |
| 20260510143456 | 74 | 0.0 | 0.0 | 0.00 | 0.00 | 0.00 | 19 | 1016.4 | |
| 20260510142416 | 74 | 248 | 1.0 | 3.0 | 0.00 | 0.00 | 0.00 | 19 | 1016.2 |
| 20260510141416 | 73 | 135 | 1.0 | 2.0 | 0.00 | 0.00 | 0.00 | 20 | 1016.1 |
| 20260510140416 | 74 | 248 | 3.0 | 4.0 | 0.00 | 0.00 | 0.00 | 21 | 1016.1 |
| 20260510135436 | 74 | 0.0 | 0.0 | 0.00 | 0.00 | 0.00 | 22 | 1016.2 | |
| 20260510134436 | 72 | 0.0 | 0.0 | 0.00 | 0.00 | 0.00 | 22 | 1015.8 | |
| 20260510133436 | 72 | 0.0 | 3.0 | 0.00 | 0.00 | 0.00 | 22 | 1015.8 | |
| 20260510132436 | 72 | 0.0 | 0.0 | 0.00 | 0.00 | 0.00 | 22 | 1015.8 | |
| 20260510131416 | 71 | 0.0 | 0.0 | 0.00 | 0.00 | 0.00 | 21 | 1015.5 | |
| 20260510130416 | 72 | 0.0 | 0.0 | 0.00 | 0.00 | 0.00 | 19 | 1015.5 | |
| 20260510125416 | 73 | 0.0 | 0.0 | 0.00 | 0.00 | 0.00 | 19 | 1015.7 | |
| 20260510124416 | 73 | 0.0 | 1.0 | 0.00 | 0.00 | 0.00 | 18 | 1015.3 | |
| 20260510123416 | 74 | 293 | 2.0 | 5.0 | 0.00 | 0.00 | 0.00 | 18 | 1015.2 |
| 20260510122416 | 74 | 315 | 4.0 | 6.0 | 0.00 | 0.00 | 0.00 | 18 | 1015.5 |
| 20260510121436 | 74 | 0 | 2.0 | 4.0 | 0.00 | 0.00 | 0.00 | 18 | 1015.5 |
| 20260510120416 | 74 | 23 | 4.0 | 6.0 | 0.00 | 0.00 | 0.00 | 17 | 1015.5 |
| 20260510115416 | 73 | 0.0 | 0.0 | 0.00 | 0.00 | 0.00 | 18 | 1015.1 | |
| 20260510114416 | 72 | 0 | 3.0 | 4.0 | 0.00 | 0.00 | 0.00 | 18 | 1015.0 |
| 20260510113416 | 71 | 0.0 | 0.0 | 0.00 | 0.00 | 0.00 | 19 | 1014.7 | |
| 20260510112416 | 72 | 0.0 | 0.0 | 0.00 | 0.00 | 0.00 | 18 | 1014.6 | |
| 20260510111436 | 73 | 0 | 1.0 | 3.0 | 0.00 | 0.00 | 0.00 | 17 | 1014.6 |
| 20260510110416 | 73 | 0.0 | 0.0 | 0.00 | 0.00 | 0.00 | 17 | 1014.7 | |
| 20260510105416 | 73 | 0.0 | 0.0 | 0.00 | 0.00 | 0.00 | 17 | 1014.6 | |
| 20260510104416 | 74 | 0.0 | 0.0 | 0.00 | 0.00 | 0.00 | 17 | 1014.6 | |
| 20260510103416 | 74 | 23 | 1.0 | 2.0 | 0.00 | 0.00 | 0.00 | 16 | 1014.8 |
| 20260510102416 | 75 | 23 | 2.0 | 3.0 | 0.00 | 0.00 | 0.00 | 16 | 1014.8 |
| 20260510101416 | 76 | 23 | 2.0 | 4.0 | 0.00 | 0.00 | 0.00 | 15 | 1014.8 |
| 20260510100416 | 76 | 45 | 2.0 | 4.0 | 0.00 | 0.00 | 0.00 | 15 | 1014.7 |
| 20260510095416 | 76 | 0 | 4.0 | 10.0 | 0.00 | 0.00 | 0.00 | 15 | 1014.7 |
| 20260510094416 | 76 | 23 | 5.0 | 8.0 | 0.00 | 0.00 | 0.00 | 15 | 1014.6 |
| 20260510093416 | 76 | 23 | 4.0 | 5.0 | 0.00 | 0.00 | 0.00 | 15 | 1014.6 |
| 20260510092416 | 77 | 23 | 4.0 | 9.0 | 0.00 | 0.00 | 0.00 | 15 | 1014.7 |
| 20260510091416 | 77 | 23 | 1.0 | 3.0 | 0.00 | 0.00 | 0.00 | 14 | 1014.9 |
| 20260510090416 | 77 | 23 | 3.0 | 6.0 | 0.00 | 0.00 | 0.00 | 14 | 1014.8 |
| 20260510085436 | 76 | 68 | 2.0 | 4.0 | 0.00 | 0.00 | 0.00 | 15 | 1014.8 |
| 20260510084416 | 76 | 0 | 3.0 | 4.0 | 0.00 | 0.00 | 0.00 | 15 | 1014.8 |
| 20260510083416 | 76 | 23 | 4.0 | 6.0 | 0.00 | 0.00 | 0.00 | 14 | 1014.9 |
| 20260510082416 | 76 | 23 | 3.0 | 6.0 | 0.00 | 0.00 | 0.00 | 14 | 1014.8 |
| 20260510081416 | 76 | 23 | 3.0 | 5.0 | 0.00 | 0.00 | 0.00 | 14 | 1014.5 |
| 20260510080416 | 75 | 23 | 2.0 | 4.0 | 0.00 | 0.00 | 0.00 | 15 | 1014.5 |
| 20260510075416 | 75 | 45 | 3.0 | 4.0 | 0.00 | 0.00 | 0.00 | 15 | 1014.5 |
| 20260510074416 | 75 | 0.0 | 0.0 | 0.00 | 0.00 | 0.00 | 15 | 1014.6 | |
| 20260510073416 | 74 | 0.0 | 0.0 | 0.00 | 0.00 | 0.00 | 15 | 1014.7 | |
| 20260510072436 | 74 | 0.0 | 0.0 | 0.00 | 0.00 | 0.00 | 15 | 1014.4 | |
| 20260510071416 | 74 | 0.0 | 0.0 | 0.00 | 0.00 | 0.00 | 15 | 1014.4 | |
| 20260510070416 | 74 | 0.0 | 0.0 | 0.00 | 0.00 | 0.00 | 15 | 1014.3 | |
| 20260510065416 | 74 | 0.0 | 1.0 | 0.00 | 0.00 | 0.00 | 15 | 1014.0 | |
| 20260510064416 | 75 | 0.0 | 0.0 | 0.00 | 0.00 | 0.00 | 15 | 1014.0 | |
| 20260510063416 | 74 | 0.0 | 0.0 | 0.00 | 0.00 | 0.00 | 15 | 1014.0 | |
| 20260510062416 | 76 | 0.0 | 0.0 | 0.00 | 0.00 | 0.00 | 14 | 1014.0 | |
| 20260510061416 | 77 | 0.0 | 0.0 | 0.00 | 0.00 | 0.00 | 13 | 1014.0 | |
| 20260510060416 | 77 | 0.0 | 2.0 | 0.00 | 0.00 | 0.00 | 12 | 1013.9 | |
| 20260510055436 | 77 | 0.0 | 0.0 | 0.00 | 0.00 | 0.00 | 13 | 1013.9 | |
| 20260510054416 | 78 | 0.0 | 0.0 | 0.00 | 0.00 | 0.00 | 12 | 1013.8 | |
| 20260510053416 | 79 | 113 | 1.0 | 2.0 | 0.00 | 0.00 | 0.00 | 11 | 1014.1 |
| 20260510052416 | 78 | 68 | 1.0 | 5.0 | 0.00 | 0.00 | 0.00 | 12 | 1013.5 |
| 20260510051416 | 78 | 0.0 | 0.0 | 0.00 | 0.00 | 0.00 | 12 | 1013.5 | |
| 20260510050416 | 79 | 0.0 | 0.0 | 0.00 | 0.00 | 0.00 | 11 | 1013.6 | |
| 20260510045416 | 79 | 0.0 | 1.0 | 0.00 | 0.00 | 0.00 | 11 | 1013.5 | |
| 20260510044416 | 79 | 0.0 | 0.0 | 0.00 | 0.00 | 0.00 | 12 | 1013.5 | |
| 20260510043416 | 78 | 0.0 | 0.0 | 0.00 | 0.00 | 0.00 | 12 | 1013.3 | |
| 20260510042416 | 79 | 0.0 | 0.0 | 0.00 | 0.00 | 0.00 | 12 | 1012.9 | |
| 20260510041416 | 80 | 0.0 | 0.0 | 0.00 | 0.00 | 0.00 | 11 | 1013.1 | |
| 20260510040416 | 80 | 0.0 | 0.0 | 0.00 | 0.00 | 0.00 | 11 | 1013.1 | |
| 20260510035456 | 80 | 0.0 | 0.0 | 0.00 | 0.00 | 0.00 | 12 | 1013.0 | |
| 20260510034416 | 80 | 0.0 | 0.0 | 0.00 | 0.00 | 0.00 | 12 | 1012.9 | |
| 20260510033416 | 80 | 0.0 | 0.0 | 0.00 | 0.00 | 0.00 | 12 | 1012.8 | |
| 20260510032416 | 81 | 0.0 | 0.0 | 0.00 | 0.00 | 0.00 | 12 | 1012.5 | |
| 20260510031416 | 81 | 0.0 | 0.0 | 0.00 | 0.00 | 0.00 | 12 | 1012.3 | |
| 20260510030416 | 81 | 0.0 | 0.0 | 0.00 | 0.00 | 0.00 | 12 | 1012.2 | |
| 20260510025416 | 81 | 0.0 | 0.0 | 0.00 | 0.00 | 0.00 | 12 | 1011.7 | |
| 20260510024436 | 81 | 0.0 | 0.0 | 0.00 | 0.00 | 0.00 | 12 | 1011.5 | |
| 20260510023416 | 83 | 0.0 | 0.0 | 0.00 | 0.00 | 0.00 | 11 | 1011.5 | |
| 20260510022416 | 84 | 0.0 | 0.0 | 0.00 | 0.00 | 0.00 | 11 | 1011.1 | |
| 20260510021516 | 85 | 0.0 | 1.0 | 0.00 | 0.00 | 0.00 | 11 | 1010.9 | |
| 20260510020416 | 86 | 0.0 | 1.0 | 0.00 | 0.00 | 0.00 | 10 | 1011.1 | |
| 20260510015416 | 86 | 0.0 | 0.0 | 0.00 | 0.00 | 0.00 | 10 | 1010.4 | |
| 20260510014416 | 87 | 248 | 2.0 | 5.0 | 0.00 | 0.00 | 0.00 | 10 | 1010.5 |
| 20260510013416 | 88 | 0.0 | 0.0 | 0.00 | 0.00 | 0.00 | 9 | 1010.4 | |
| 20260510012436 | 90 | 0.0 | 2.0 | 0.00 | 0.00 | 0.00 | 9 | 1010.2 | |
| 20260510011436 | 90 | 0.0 | 0.0 | 0.00 | 0.00 | 0.00 | 9 | 1010.4 | |
| 20260510010416 | 90 | 0.0 | 0.0 | 0.00 | 0.00 | 0.00 | 8 | 1010.5 | |
| 20260510005416 | 90 | 225 | 3.0 | 5.0 | 0.00 | 0.00 | 0.00 | 8 | 1010.5 |
| 20260510004416 | 91 | 248 | 2.0 | 4.0 | 0.00 | 0.00 | 0.00 | 8 | 1010.6 |
| 20260510003416 | 91 | 248 | 2.0 | 4.0 | 0.00 | 0.00 | 0.00 | 8 | 1010.6 |
| 20260510002416 | 91 | 248 | 2.0 | 4.0 | 0.00 | 0.00 | 0.00 | 8 | 1010.9 |
| 20260510001416 | 91 | 180 | 4.0 | 5.0 | 0.00 | 0.00 | 0.00 | 7 | 1010.8 |
| 20260510000418 | 91 | 0.0 | 0.0 | 0.00 | 0.00 | 0.00 | 7 | 1010.9 | |
| 20260509235416 | 92 | 0.0 | 0.0 | 0.00 | 0.00 | 0.00 | 7 | 1011.0 | |
| 20260509234416 | 92 | 315 | 5.0 | 7.0 | 0.00 | 0.00 | 0.00 | 7 | 1011.1 |
| 20260509233416 | 92 | 0.0 | 1.0 | 0.00 | 0.00 | 0.00 | 7 | 1011.2 | |
| 20260509232416 | 92 | 0.0 | 1.0 | 0.00 | 0.00 | 0.00 | 7 | 1011.5 | |
| 20260509231436 | 92 | 293 | 5.0 | 7.0 | 0.00 | 0.00 | 0.00 | 7 | 1011.6 |
| 20260509230416 | 92 | 293 | 4.0 | 8.0 | 0.00 | 0.00 | 0.00 | 8 | 1011.6 |
| 20260509225416 | 92 | 90 | 6.0 | 10.0 | 0.00 | 0.00 | 0.00 | 7 | 1011.8 |
| 20260509224416 | 92 | 0 | 1.0 | 3.0 | 0.00 | 0.00 | 0.00 | 8 | 1011.8 |
| 20260509223416 | 92 | 0.0 | 0.0 | 0.00 | 0.00 | 0.00 | 8 | 1012.0 |